Regional Weather Roundup
Issued by NWS Jackson, KY

Home | Current Version | Previous Version | Graphics & Text | Print | Product List | Glossary On
Versions: 1 2 3 4 5 6 7 8 9 10 11 12 13 14 15 16 17 18 19 20 21 22 23 24 25 26 27 28 29 30 31 32 33 34 35 36 37 38 39 40 41 42 43 44 45 46 47 48 49 50
000
ASUS43 KJKL 050310
RWRJKL

EAST KENTUCKY HOURLY WEATHER ROUNDUP
NATIONAL WEATHER SERVICE JACKSON KY
1100 PM EDT FRI SEP 04 2015

NOTE: "FAIR" INDICATES FEW OR NO CLOUDS BELOW 12,000 FEET WITH
NO SIGNIFICANT WEATHER AND/OR OBSTRUCTIONS TO VISIBILITY.

* THESE REPORTS ARE NOT UNDER NWS QUALITY CONTROL AND MAY NOT
  REPORT WEATHER SUCH AS PRECIPITATION AND FOG.

KYZ079-080-083-085-087-088-110-112-115-119-120-050400
...EASTERN KENTUCKY...

CITY           SKY/WX    TMP DP  RH WIND       PRES   REMARKS
JACKSON        CLEAR     76  66  71 CALM      30.12R
LONDON         CLEAR     75  65  70 CALM      30.11R
SOMERSET*      PTCLDY    72  68  88 CALM      30.10S
MONTICELLO*    CLEAR     68  68 100 CALM      30.12R
WILLIAMSBURG*  CLEAR     68  66  94 CALM      30.10S
MIDDLESBORO*   CLEAR     71  68  88 CALM      30.12R
HARLAN APT*      N/A     68  64  88 MISG      30.14R
BLACK MTN*       N/A     66  63  88 CALM        N/A
PIKEVILLE APT* MOCLDY    77  68  73 CALM      30.14R THUNDER
BIG SANDY*     PTCLDY    72  70  95 CALM      30.12S
MOREHEAD APT*  PTCLDY    77  64  65 N10       30.15R
$$

KYZ035-036-041-042-044-050-067-078-099-050400
...CENTRAL KENTUCKY...

CITY           SKY/WX    TMP DP  RH WIND       PRES   REMARKS
MT STERLING*   PTCLDY   N/A N/A N/A N10G16    30.15R
FLEMING/MASON* MOCLDY    72  66  83 N9        30.17R
DANVILLE*      CLEAR     72  64  78 CALM      30.11S
RICHMOND*      CLEAR     73  64  73 E3        30.10R
LEXINGTON      MOCLDY    76  64  66 N15G26    30.14R THUNDER
FRANKFORT      MOCLDY    76  61  59 NE12      30.11F
$$

KYZ091>093-OHZ055-061-077-WVZ005-015-034-035-042-050400
...SOUTHERN OHIO/WEST VIRGINIA...

CITY           SKY/WX    TMP DP  RH WIND       PRES   REMARKS
COVINGTON      LGT RAIN  71  65  81 SE8       30.10F
COLUMBUS       CLOUDY    69  66  90 SE3       30.09F
DAYTON         CLOUDY    67  65  93 N3        30.10R
WILMINGTON     CLOUDY    70  62  76 S7        30.09F
HUNTINGTON     PTCLDY    72  66  81 CALM      30.10S
CHARLESTON     PTCLDY    74  68  81 CALM      30.11S
PINEVILLE*     LGT RAIN  66  66 100 MISG      30.22S
BECKLEY        CLOUDY    65  63  93 CALM      30.20S FOG
BLUEFIELD      CLOUDY    69  63  81 CALM      30.22S
$$

VAZ002-007-008-TNZ017-027-036-066-071-050400
...SOUTHWEST VIRGINIA/EAST TENNESSEE...

CITY           SKY/WX    TMP DP  RH WIND       PRES   REMARKS
WISE*          PTCLDY    73  61  64 NE7       30.22R
JONESVILLE*    PTCLDY    72  68  88 CALM      30.14R
ABINGDON*      PTCLDY    73  60  63 E7        30.17S
BRISTOL        PTCLDY    73  66  78 CALM      30.13R
KNOXVILLE      PTCLDY    77  67  71 CALM      30.05S
OAK RIDGE      CLEAR     75  70  84 CALM      30.08R
CROSSVILLE     CLEAR     72  66  81 CALM      30.14R
NASHVILLE      CLEAR     79  66  64 CALM      30.05R
$$

...KEY TO REMARKS...
VSB - VISIBILITY IN MILES
WCI - WIND CHILL INDEX
HX  - HEAT INDEX

$$



USA.gov is the U.S. government's official web portal to all federal, state and local government web resources and services.